GW7113 Weather Reports


Display with metric or nautical units.
time (UTC)temp
F
wind
direction
speed
MPH
gust
MPH
rain 1hr
in
rain 24hr
in
rain mn
in
humidity
%
barometer
mb
20260506113153 71 173 1.0 1.0 0.00 0.00 0.00 96 1011.1
20260506112653 71 173 0.0 1.0 0.00 0.00 0.00 96 1011.3
20260506112153 71 173 0.0 3.0 0.00 0.00 0.00 96 1011.2
20260506111912 71 174 0.0 6.0 0.00 0.00 0.00 96 1011.1
20260506111152 71 171 2.0 8.0 0.00 0.00 0.00 97 1011.3
20260506110652 71 161 2.0 8.0 0.00 0.00 0.00 97 1011.1
20260506110153 71 167 5.0 8.0 0.00 0.00 0.00 97 1011.1
20260506105653 71 188 6.0 8.0 0.00 0.00 0.00 96 1011.1
20260506105153 71 135 5.0 6.0 0.00 0.00 0.00 96 1011.1
20260506104652 71 113 2.0 7.0 0.00 0.00 0.00 96 1011.0
20260506104153 71 113 2.0 7.0 0.00 0.00 0.00 96 1010.8
20260506103653 71 129 2.0 10.0 0.00 0.00 0.00 96 1010.8
20260506103152 71 146 4.0 10.0 0.00 0.00 0.00 96 1010.7
20260506102652 71 171 6.0 9.0 0.00 0.00 0.00 96 1010.8
20260506102152 71 175 5.0 10.0 0.00 0.00 0.00 96 1011.0
20260506101652 71 158 4.0 11.0 0.00 0.00 0.00 96 1011.0
20260506101417 71 169 6.0 11.0 0.00 0.00 0.00 96 1011.0
20260506100654 71 145 6.0 13.0 0.00 0.00 0.00 96 1011.1
20260506100153 71 155 6.0 13.0 0.00 0.00 0.00 96 1010.8
20260506095653 71 143 9.0 13.0 0.00 0.00 0.00 96 1010.5
20260506095153 71 144 9.0 14.0 0.00 0.00 0.00 96 1010.6
20260506094923 71 168 6.0 14.0 0.00 0.00 0.00 96 1010.5
20260506094152 71 142 9.0 11.0 0.00 0.00 0.00 96 1010.5
20260506093653 71 182 7.0 11.0 0.00 0.00 0.00 95 1010.5
20260506093153 71 167 5.0 18.0 0.00 0.00 0.00 95 1010.5
20260506092653 71 137 7.0 18.0 0.00 0.00 0.00 95 1010.5
20260506092153 71 160 7.0 17.0 0.00 0.00 0.00 95 1010.5
20260506091914 71 163 10.0 19.0 0.00 0.00 0.00 95 1010.4
20260506091152 71 142 10.0 19.0 0.00 0.00 0.00 95 1010.1
20260506090657 71 168 8.0 21.0 0.00 0.00 0.00 95 1010.1
20260506090411 72 188 7.0 21.0 0.00 0.00 0.00 95 1010.0
20260506085653 72 141 14.0 19.0 0.00 0.00 0.00 95 1010.0
20260506085154 72 176 13.0 17.0 0.00 0.00 0.00 95 1010.1
20260506084652 72 163 6.0 17.0 0.00 0.00 0.00 95 1010.2
20260506084152 72 168 13.0 17.0 0.00 0.00 0.00 95 1010.2
20260506083652 72 156 9.0 21.0 0.00 0.00 0.00 94 1010.0
20260506082652 72 173 9.0 18.0 0.00 0.00 0.00 95 1010.0
20260506082152 72 170 6.0 15.0 0.00 0.00 0.00 95 1010.0
20260506081653 72 155 9.0 15.0 0.00 0.00 0.00 94 1009.9
20260506081153 72 134 9.0 17.0 0.00 0.00 0.00 94 1010.0
20260506080917 72 160 10.0 17.0 0.00 0.00 0.00 94 1009.9
20260506080152 72 154 11.0 19.0 0.00 0.00 0.00 94 1010.1
20260506073153 73 157 11.0 23.0 0.00 0.00 0.00 94 1010.0
20260506072653 73 181 10.0 25.0 0.00 0.00 0.00 94 1010.3
20260506072411 73 145 15.0 25.0 0.00 0.00 0.00 94 1010.1
20260506071912 73 176 14.0 27.0 0.00 0.00 0.00 93 1010.1
20260506071153 73 164 15.0 27.0 0.00 0.00 0.00 93 1010.2
20260506070652 73 139 12.0 25.0 0.00 0.00 0.00 94 1010.2
20260506070152 73 160 13.0 25.0 0.00 0.00 0.00 94 1010.2
20260506062153 73 197 11.0 24.0 0.00 0.00 0.00 94 1010.3
20260506061653 73 151 11.0 24.0 0.00 0.00 0.00 93 1010.0
20260506061153 73 162 12.0 23.0 0.00 0.00 0.00 93 1010.0
20260506060652 73 152 15.0 23.0 0.00 0.00 0.00 94 1010.3
20260506060154 73 157 13.0 23.0 0.00 0.00 0.00 94 1010.2
20260506051152 73 156 8.0 14.0 0.00 0.00 0.00 92 1010.3
20260506050653 73 155 8.0 15.0 0.00 0.00 0.00 92 1010.5
20260506050153 73 143 9.0 15.0 0.00 0.00 0.00 92 1010.4
20260506044652 73 175 11.0 17.0 0.00 0.00 0.00 91 1010.2
20260506044152 73 159 8.0 17.0 0.00 0.00 0.00 91 1010.3
20260506043925 73 162 10.0 15.0 0.00 0.00 0.00 91 1010.4
20260506043153 73 149 7.0 15.0 0.00 0.00 0.00 90 1010.1
20260506042652 73 134 9.0 17.0 0.00 0.00 0.00 90 1010.3
20260506042412 73 186 6.0 17.0 0.00 0.00 0.00 90 1010.3
20260506041913 73 159 10.0 15.0 0.00 0.00 0.00 90 1010.3
20260506041153 73 178 11.0 17.0 0.00 0.00 0.00 89 1010.2
20260506040653 73 168 8.0 17.0 0.00 0.00 0.00 89 1010.1
20260506040152 73 169 11.0 15.0 0.00 0.00 0.00 89 1010.2
20260506035152 74 184 9.0 15.0 0.00 0.00 0.00 88 1010.1
20260506034911 74 195 9.0 15.0 0.00 0.00 0.00 88 1010.1
20260506034153 74 182 9.0 15.0 0.00 0.00 0.00 88 1010.2
20260506033913 74 164 9.0 15.0 0.00 0.00 0.00 87 1010.0
20260506033153 74 155 9.0 13.0 0.00 0.00 0.00 87 1010.2
20260506032653 74 164 8.0 13.0 0.00 0.00 0.00 87 1010.0
20260506032153 74 175 10.0 13.0 0.00 0.00 0.00 87 1010.1
20260506031653 74 158 7.0 15.0 0.00 0.00 0.00 86 1009.9
20260506031152 74 150 7.0 15.0 0.00 0.00 0.00 86 1009.8
20260506030911 74 182 8.0 15.0 0.00 0.00 0.00 86 1009.7
20260506030408 74 173 9.0 14.0 0.00 0.00 0.00 86 1009.7
20260506025914 74 150 9.0 13.0 0.00 0.00 0.00 85 1009.8
20260506025153 74 153 7.0 11.0 0.00 0.00 0.00 85 1009.7
20260506024923 75 169 7.0 13.0 0.00 0.00 0.00 84 1009.7
20260506024153 75 161 8.0 13.0 0.00 0.00 0.00 84 1009.4
20260506023652 75 156 8.0 14.0 0.00 0.00 0.00 83 1009.5
20260506023412 75 176 8.0 14.0 0.00 0.00 0.00 83 1009.3
20260506022652 75 166 8.0 13.0 0.00 0.00 0.00 83 1009.5
20260506022153 75 194 7.0 15.0 0.00 0.00 0.00 83 1009.2
20260506021652 75 169 8.0 15.0 0.00 0.00 0.00 82 1009.2
20260506021152 76 163 9.0 15.0 0.00 0.00 0.00 82 1008.9
20260506020653 75 174 6.0 14.0 0.00 0.00 0.00 82 1008.8
20260506020153 75 151 7.0 11.0 0.00 0.00 0.00 82 1008.8
20260506015652 76 167 8.0 11.0 0.00 0.00 0.00 82 1008.8
20260506015152 76 162 7.0 10.0 0.00 0.00 0.00 82 1008.8
20260506014654 76 155 6.0 10.0 0.00 0.00 0.00 82 1008.6
20260506014153 76 149 7.0 11.0 0.00 0.00 0.00 81 1008.6
20260506013652 76 178 6.0 11.0 0.00 0.00 0.00 81 1008.5
20260506013152 76 169 7.0 11.0 0.00 0.00 0.00 81 1008.3
20260506012653 77 171 6.0 11.0 0.00 0.00 0.00 80 1008.2
20260506012152 77 156 6.0 11.0 0.00 0.00 0.00 79 1008.2
20260506011653 77 170 6.0 11.0 0.00 0.00 0.00 79 1008.0
20260506011153 78 156 5.0 10.0 0.00 0.00 0.00 78 1008.2
20260506010653 78 146 7.0 10.0 0.00 0.00 0.00 77 1008.0
20260506010153 78 185 5.0 13.0 0.00 0.00 0.00 76 1008.2
20260506005652 79 138 6.0 15.0 0.00 0.00 0.00 75 1008.0
20260506005153 79 171 5.0 15.0 0.00 0.00 0.00 75 1008.2
20260506004652 80 141 9.0 15.0 0.00 0.00 0.00 74 1008.3
20260506004152 80 151 9.0 15.0 0.00 0.00 0.00 73 1008.2
20260506003653 81 170 6.0 17.0 0.00 0.00 0.00 72 1008.2
20260506003153 82 171 11.0 19.0 0.00 0.00 0.00 71 1008.3
20260506002653 82 131 7.0 19.0 0.00 0.00 0.00 69 1008.4
20260506002414 83 151 9.0 19.0 0.00 0.00 0.00 68 1008.5
20260506001653 83 177 9.0 18.0 0.00 0.00 0.00 68 1008.4
20260506001152 83 137 9.0 18.0 0.00 0.00 0.00 69 1008.4
20260506000652 83 184 11.0 15.0 0.00 0.00 0.00 69 1008.5
20260506000152 83 161 7.0 17.0 0.00 0.00 0.00 68 1008.5
20260505235652 82 160 8.0 18.0 0.00 0.00 0.00 68 1008.4
20260505235152 83 163 11.0 18.0 0.00 0.00 0.00 69 1008.5
20260505234653 83 162 11.0 15.0 0.00 0.00 0.00 68 1008.5
20260505234152 83 165 10.0 15.0 0.00 0.00 0.00 68 1008.4
20260505233652 83 166 9.0 15.0 0.00 0.00 0.00 68 1008.3
20260505232652 83 179 8.0 16.0 0.00 0.00 0.00 68 1008.4
20260505232153 83 163 9.0 16.0 0.00 0.00 0.00 67 1008.3
20260505231653 83 196 11.0 17.0 0.00 0.00 0.00 67 1008.2
20260505231153 83 181 9.0 17.0 0.00 0.00 0.00 67 1008.2
20260505230653 84 172 11.0 15.0 0.00 0.00 0.00 67 1008.2
20260505230158 84 169 10.0 16.0 0.00 0.00 0.00 66 1008.3
20260505225653 84 198 10.0 19.0 0.00 0.00 0.00 66 1008.2
20260505225153 84 180 12.0 19.0 0.00 0.00 0.00 65 1008.3
20260505224653 84 190 9.0 21.0 0.00 0.00 0.00 65 1008.0
20260505224141 85 203 11.0 21.0 0.00 0.00 0.00 64 1008.4
20260505223640 85 185 10.0 19.0 0.00 0.00 0.00 65 1008.1
20260505223140 84 204 11.0 21.0 0.00 0.00 0.00 65 1008.1
20260505222140 84 174 12.0 18.0 0.00 0.00 0.00 65 1008.0
20260505221640 85 179 12.0 17.0 0.00 0.00 0.00 65 1008.2
20260505221358 85 141 9.0 19.0 0.00 0.00 0.00 65 1008.3
20260505220903 85 170 13.0 19.0 0.00 0.00 0.00 64 1008.2
20260505220140 85 159 13.0 17.0 0.00 0.00 0.00 63 1008.4
20260505215640 85 200 9.0 18.0 0.00 0.00 0.00 64 1008.2
20260505215140 85 202 11.0 19.0 0.00 0.00 0.00 65 1008.2
20260505214641 85 161 8.0 19.0 0.00 0.00 0.00 62 1008.6
20260505214141 86 184 13.0 18.0 0.00 0.00 0.00 63 1008.6
20260505213641 85 245 10.0 18.0 0.00 0.00 0.00 63 1008.7
20260505213142 86 201 10.0 18.0 0.00 0.00 0.00 62 1008.5
20260505212641 86 149 7.0 22.0 0.00 0.00 0.00 64 1008.6
20260505212400 86 181 12.0 22.0 0.00 0.00 0.00 61 1008.6
20260505211859 86 174 11.0 17.0 0.00 0.00 0.00 63 1008.7
20260505211141 87 169 11.0 18.0 0.00 0.00 0.00 62 1008.7
20260505210900 86 180 15.0 19.0 0.00 0.00 0.00 63 1008.6
20260505210140 86 173 11.0 19.0 0.00 0.00 0.00 63 1008.8
20260505205640 87 168 15.0 19.0 0.00 0.00 0.00 63 1008.9
20260505205141 86 200 9.0 22.0 0.00 0.00 0.00 62 1008.7
20260505204641 87 184 9.0 22.0 0.00 0.00 0.00 60 1008.9
20260505204141 87 170 11.0 22.0 0.00 0.00 0.00 62 1009.2
20260505203641 87 184 11.0 22.0 0.00 0.00 0.00 61 1009.2
20260505203141 87 186 12.0 18.0 0.00 0.00 0.00 63 1009.0
20260505202908 86 184 13.0 19.0 0.00 0.00 0.00 63 1009.3
20260505202140 86 177 13.0 21.0 0.00 0.00 0.00 63 1009.3
20260505201640 86 155 12.0 21.0 0.00 0.00 0.00 62 1009.3
20260505201141 86 179 10.0 21.0 0.00 0.00 0.00 63 1009.2
20260505200641 85 148 13.0 22.0 0.00 0.00 0.00 64 1009.2
20260505200140 85 165 10.0 22.0 0.00 0.00 0.00 65 1009.3
20260505195857 85 163 12.0 21.0 0.00 0.00 0.00 63 1009.3
20260505195141 85 185 11.0 21.0 0.00 0.00 0.00 64 1009.5
20260505194640 85 159 12.0 17.0 0.00 0.00 0.00 64 1009.6
20260505194140 85 172 9.0 21.0 0.00 0.00 0.00 65 1009.7
20260505193640 85 208 12.0 21.0 0.00 0.00 0.00 63 1009.5
20260505193140 85 152 9.0 17.0 0.00 0.00 0.00 65 1009.6
20260505192641 85 151 8.0 24.0 0.00 0.00 0.00 64 1009.7
20260505192141 85 189 10.0 24.0 0.00 0.00 0.00 63 1009.7
20260505191640 85 175 17.0 24.0 0.00 0.00 0.00 65 1009.6
20260505191141 85 200 8.0 19.0 0.00 0.00 0.00 65 1009.9
20260505190141 84 183 10.0 16.0 0.00 0.00 0.00 66 1010.1
20260505185641 83 154 9.0 17.0 0.00 0.00 0.00 68 1010.1
20260505185140 83 156 8.0 17.0 0.00 0.00 0.00 66 1010.0
20260505184640 84 200 11.0 18.0 0.00 0.00 0.00 67 1010.2
20260505184140 84 186 9.0 18.0 0.00 0.00 0.00 66 1010.3
20260505183640 83 240 10.0 17.0 0.00 0.00 0.00 69 1010.3
20260505183140 83 181 10.0 17.0 0.00 0.00 0.00 67 1010.3
20260505182641 83 190 9.0 21.0 0.00 0.00 0.00 67 1010.5
20260505182142 82 158 8.0 21.0 0.00 0.00 0.00 68 1010.5
20260505181641 82 151 9.0 19.0 0.00 0.00 0.00 68 1010.6
20260505181141 82 156 10.0 23.0 0.00 0.00 0.00 69 1010.4
20260505180641 81 195 7.0 23.0 0.00 0.00 0.00 70 1010.4
20260505180141 81 206 9.0 21.0 0.00 0.00 0.00 71 1010.6
20260505175641 80 191 9.0 18.0 0.00 0.00 0.00 70 1010.8
20260505175406 81 181 8.0 16.0 0.00 0.00 0.00 71 1010.7
20260505174640 80 187 6.0 16.0 0.00 0.00 0.00 71 1011.0
20260505174403 80 181 11.0 19.0 0.00 0.00 0.00 72 1011.0
20260505173907 79 174 8.0 19.0 0.00 0.00 0.00 72 1010.8
20260505173141 78 193 12.0 16.0 0.00 0.00 0.00 75 1010.8
20260505172641 78 166 9.0 19.0 0.00 0.00 0.00 73 1011.2
20260505172141 78 173 6.0 19.0 0.00 0.00 0.00 75 1011.1
20260505171903 78 184 7.0 18.0 0.00 0.00 0.00 75 1011.1
20260505171141 78 161 6.0 19.0 0.00 0.00 0.00 76 1011.2
20260505170641 78 157 14.0 24.0 0.00 0.00 0.00 78 1011.1
20260505170359 77 166 11.0 24.0 0.00 0.00 0.00 77 1011.3
20260505165641 77 207 8.0 22.0 0.00 0.00 0.00 77 1011.2
20260505165140 76 196 12.0 21.0 0.00 0.00 0.00 79 1011.2
20260505164640 76 209 8.0 19.0 0.00 0.00 0.00 78 1011.1
20260505164141 76 200 12.0 19.0 0.00 0.00 0.00 81 1010.8
20260505163641 74 184 6.0 18.0 0.00 0.00 0.00 82 1011.2
20260505163406 74 192 12.0 19.0 0.00 0.00 0.00 83 1011.1
20260505162641 74 184 10.0 19.0 0.00 0.00 0.00 82 1011.0
20260505162141 73 150 9.0 18.0 0.00 0.00 0.00 84 1010.8
20260505161641 73 205 12.0 19.0 0.00 0.00 0.00 85 1011.0
20260505161401 73 205 12.0 19.0 0.00 0.00 0.00 85 1011.1
20260505160641 73 192 10.0 18.0 0.00 0.00 0.00 85 1011.1
20260505160406 73 184 11.0 22.0 0.00 0.00 0.00 86 1011.0
20260505152641 70 198 14.0 21.0 0.00 0.00 0.00 90 1010.8
20260505152141 70 182 12.0 19.0 0.00 0.00 0.00 91 1010.7
20260505151641 69 175 11.0 17.0 0.00 0.00 0.00 91 1010.8
20260505151402 69 197 12.0 18.0 0.00 0.00 0.00 91 1011.0
20260505150640 69 161 6.0 22.0 0.00 0.00 0.00 91 1011.0
20260505150141 69 168 14.0 25.0 0.00 0.00 0.00 91 1010.6
20260505140640 68 200 13.0 29.0 0.00 0.00 0.00 94 1009.8
20260505140141 68 212 10.0 23.0 0.00 0.00 0.00 94 1009.7
20260505130141 67 191 19.0 34.0 0.00 0.00 0.00 95 1008.9
20260505124641 67 144 18.0 38.0 0.00 0.00 0.00 95 1008.5
20260505124141 67 186 20.0 38.0 0.00 0.00 0.00 95 1008.5
20260505123903 67 185 20.0 33.0 0.00 0.00 0.00 95 1008.3
20260505123141 67 173 17.0 33.0 0.00 0.00 0.00 95 1008.3
20260505122641 67 187 19.0 32.0 0.00 0.00 0.00 95 1008.1
20260505122411 67 184 16.0 32.0 0.00 0.00 0.00 95 1008.1
20260505121640 67 210 23.0 33.0 0.00 0.00 0.00 95 1008.0
20260505121407 67 195 19.0 38.0 0.00 0.00 0.00 95 1008.3
20260505120640 67 173 21.0 34.0 0.00 0.00 0.00 95 1007.9
20260505120140 67 160 24.0 34.0 0.00 0.00 0.00 95 1007.8
20260505115905 67 174 18.0 34.0 0.00 0.00 0.00 95 1007.8
20260505115141 67 184 19.0 34.0 0.00 0.00 0.00 95 1007.9
20260505114641 67 182 20.0 34.0 0.00 0.00 0.00 95 1007.6
20260505114140 67 189 14.0 40.0 0.00 0.00 0.00 95 1007.8
20260505113640 67 177 20.0 40.0 0.00 0.00 0.00 95 1007.7